Location: Ahstedt
(52.2048°N, 10.1060°E)
Time: 20:52:59
(UTC+00:00)

Cosmos 1461 - Pass Details

Date: 18 January 2026
Orbit: 426 x 502 km, 65.0° (Epoch: 16 February)

Event Time Altitude Azimuth Distance (km) Brightness Sun altitude
Rises 06:07:13 0° 217° (SW) 2,595 6.1 -10.6°
Maximum altitude 06:13:13 78° 131° (SE) 528 2.8 -9.7°
Drops below altitude 10° 06:17:08 10° 44° (NE) 1,740 5.7 -9.2°
Sets 06:19:18 0° 44° (NE) 2,627 6.6 -8.9°
